TimePST,TemperatureF,Dew PointF,Humidity,Sea Level PressureIn,VisibilityMPH,Wind Direction,Wind SpeedMPH,Gust SpeedMPH,PrecipitationIn,Events,Conditions,WindDirDegrees,DateUTC
12:53 AM,51.1,44.1,77,30.15,10.0,Calm,Calm,-,N/A,,Clear,0,2012-11-05 08:53:00
1:53 AM,50.0,43.0,77,30.15,10.0,Calm,Calm,-,N/A,,Clear,0,2012-11-05 09:53:00
2:53 AM,46.9,43.0,86,30.14,10.0,Calm,Calm,-,N/A,,Clear,0,2012-11-05 10:53:00
3:53 AM,46.9,43.0,86,30.14,10.0,NNE,3.5,-,N/A,,Clear,30,2012-11-05 11:53:00
4:53 AM,45.0,39.9,82,30.14,10.0,Calm,Calm,-,N/A,,Clear,0,2012-11-05 12:53:00
5:53 AM,44.1,39.9,85,30.15,10.0,North,3.5,-,N/A,,Clear,10,2012-11-05 13:53:00
6:53 AM,44.1,39.9,85,30.17,10.0,Calm,Calm,-,N/A,,Clear,0,2012-11-05 14:53:00
7:53 AM,48.9,43.0,80,30.18,10.0,Calm,Calm,-,N/A,,Clear,0,2012-11-05 15:53:00
8:53 AM,57.0,44.1,62,30.17,10.0,Calm,Calm,-,N/A,,Clear,0,2012-11-05 16:53:00
9:53 AM,64.0,46.0,52,30.16,10.0,Calm,Calm,-,N/A,,Clear,0,2012-11-05 17:53:00
10:53 AM,70.0,46.9,44,30.13,10.0,Calm,Calm,-,N/A,,Clear,0,2012-11-05 18:53:00
11:53 AM,77.0,46.9,34,30.09,10.0,Calm,Calm,-,N/A,,Clear,0,2012-11-05 19:53:00
12:53 PM,82.9,46.0,27,30.05,10.0,Calm,Calm,-,N/A,,Clear,0,2012-11-05 20:53:00
1:53 PM,87.1,43.0,21,30.02,10.0,NW,5.8,-,N/A,,Clear,310,2012-11-05 21:53:00
2:53 PM,90.0,37.0,15,30.02,10.0,ENE,9.2,-,N/A,,Clear,60,2012-11-05 22:53:00
3:53 PM,88.0,37.0,16,30.02,10.0,East,11.5,-,N/A,,Clear,90,2012-11-05 23:53:00
4:53 PM,82.9,39.0,21,30.03,10.0,ESE,8.1,-,N/A,,Clear,110,2012-11-06 00:53:00
5:53 PM,75.0,45.0,34,30.04,10.0,ESE,9.2,-,N/A,,Clear,120,2012-11-06 01:53:00
6:53 PM,69.1,45.0,42,30.06,10.0,SE,5.8,-,N/A,,Clear,140,2012-11-06 02:53:00
7:53 PM,63.0,45.0,52,30.06,10.0,ESE,6.9,-,N/A,,Clear,120,2012-11-06 03:53:00
8:53 PM,61.0,43.0,52,30.07,10.0,SE,9.2,-,N/A,,Clear,130,2012-11-06 04:53:00
9:53 PM,60.1,43.0,53,30.08,10.0,Calm,Calm,-,N/A,,Clear,0,2012-11-06 05:53:00
10:53 PM,57.0,42.1,57,30.08,10.0,Calm,Calm,-,N/A,,Clear,0,2012-11-06 06:53:00
11:53 PM,52.0,41.0,66,30.08,10.0,Calm,Calm,-,N/A,,Clear,0,2012-11-06 07:53:00